| time (UTC) | temp F | wind direction | speed MPH | gust MPH | rain 1hr in | rain 24hr in | rain mn in | humidity % | barometer mb |
| 20260506044509 | 47 | 300 | 1.0 | 3.0 | 0.00 | 0.03 | 0.00 | 93 | 1006.2 |
| 20260506043002 | 47 | 306 | 2.0 | 3.0 | 0.00 | 0.03 | 0.00 | 93 | 1006.1 |
| 20260506041608 | 47 | 213 | 0.0 | 1.0 | 0.00 | 0.03 | 0.00 | 92 | 1006.1 |
| 20260506040058 | 48 | 214 | 0.0 | 0.0 | 0.00 | 0.03 | 0.00 | 92 | 1006.2 |
| 20260506034557 | 49 | 214 | 0.0 | 2.0 | 0.00 | 0.03 | 0.00 | 92 | 1006.5 |
| 20260506033105 | 49 | 214 | 0.0 | 2.0 | 0.00 | 0.03 | 0.00 | 91 | 1006.5 |
| 20260506031557 | 49 | 214 | 0.0 | 1.0 | 0.00 | 0.03 | 0.00 | 90 | 1006.6 |
| 20260506030052 | 50 | 229 | 0.0 | 4.0 | 0.00 | 0.03 | 0.00 | 90 | 1006.8 |
| 20260506024549 | 50 | 229 | 2.0 | 5.0 | 0.00 | 0.03 | 0.00 | 89 | 1007.0 |
| 20260506023051 | 50 | 259 | 4.0 | 9.0 | 0.00 | 0.03 | 0.00 | 89 | 1007.0 |
| 20260506021553 | 51 | 218 | 4.0 | 12.0 | 0.00 | 0.03 | 0.00 | 89 | 1007.1 |
| 20260506020046 | 51 | 276 | 9.0 | 14.0 | 0.00 | 0.03 | 0.00 | 88 | 1007.2 |
| 20260506014550 | 51 | 272 | 9.0 | 13.0 | 0.00 | 0.03 | 0.00 | 89 | 1007.5 |
| 20260506013041 | 51 | 265 | 8.0 | 12.0 | 0.00 | 0.03 | 0.00 | 89 | 1007.6 |
| 20260506011541 | 50 | 288 | 5.0 | 9.0 | 0.00 | 0.03 | 0.00 | 90 | 1007.9 |
| 20260506010037 | 50 | 220 | 5.0 | 8.0 | 0.00 | 0.03 | 0.00 | 93 | 1008.0 |
| 20260506004541 | 49 | 235 | 1.0 | 3.0 | 0.00 | 0.03 | 0.00 | 91 | 1008.2 |
| 20260506003033 | 49 | 237 | 2.0 | 4.0 | 0.00 | 0.03 | 0.00 | 91 | 1008.3 |
| 20260506001534 | 50 | 237 | 3.0 | 6.0 | 0.00 | 0.03 | 0.00 | 90 | 1008.4 |
| 20260506000039 | 50 | 218 | 4.0 | 9.0 | 0.00 | 0.03 | 0.00 | 90 | 1008.5 |
| 20260505234530 | 50 | 252 | 5.0 | 10.0 | 0.00 | 0.03 | 0.00 | 91 | 1008.5 |
| 20260505233027 | 50 | 255 | 4.0 | 7.0 | 0.00 | 0.03 | 0.00 | 92 | 1008.6 |
| 20260505231524 | 50 | 232 | 3.0 | 8.0 | 0.00 | 0.03 | 0.00 | 94 | 1008.7 |
| 20260505230020 | 49 | 201 | 3.0 | 5.0 | 0.00 | 0.03 | 0.00 | 93 | 1008.9 |
| 20260505224519 | 49 | 307 | 1.0 | 3.0 | 0.00 | 0.03 | 0.00 | 94 | 1008.9 |
| 20260505223014 | 49 | 220 | 0.0 | 4.0 | 0.00 | 0.03 | 0.00 | 94 | 1008.8 |
| 20260505221513 | 49 | 199 | 2.0 | 4.0 | 0.00 | 0.03 | 0.00 | 93 | 1008.8 |
| 20260505220024 | 49 | 196 | 2.0 | 4.0 | 0.00 | 0.03 | 0.03 | 93 | 1009.0 |
| 20260505214516 | 49 | 193 | 3.0 | 4.0 | 0.00 | 0.03 | 0.03 | 92 | 1009.1 |
| 20260505213010 | 50 | 201 | 1.0 | 3.0 | 0.00 | 0.03 | 0.03 | 92 | 1009.2 |
| 20260505211509 | 50 | 207 | 2.0 | 3.0 | 0.00 | 0.03 | 0.03 | 92 | 1009.2 |
| 20260505210009 | 50 | 204 | 2.0 | 4.0 | 0.00 | 0.03 | 0.03 | 93 | 1009.2 |
| 20260505204515 | 50 | 197 | 3.0 | 5.0 | 0.00 | 0.03 | 0.03 | 93 | 1009.3 |
| 20260505203008 | 50 | 192 | 3.0 | 4.0 | 0.00 | 0.03 | 0.03 | 93 | 1009.3 |
| 20260505201507 | 50 | 208 | 3.0 | 6.0 | 0.00 | 0.03 | 0.03 | 93 | 1009.0 |
| 20260505200009 | 50 | 202 | 3.0 | 6.0 | 0.00 | 0.03 | 0.03 | 93 | 1009.1 |
| 20260505194507 | 50 | 196 | 3.0 | 5.0 | 0.00 | 0.03 | 0.03 | 92 | 1009.0 |
| 20260505193017 | 50 | 217 | 4.0 | 6.0 | 0.00 | 0.03 | 0.03 | 92 | 1008.9 |
| 20260505191504 | 51 | 203 | 3.0 | 5.0 | 0.00 | 0.03 | 0.03 | 90 | 1008.6 |
| 20260505190011 | 52 | 178 | 1.0 | 4.0 | 0.00 | 0.03 | 0.03 | 90 | 1008.6 |
| 20260505184503 | 53 | 192 | 3.0 | 6.0 | 0.00 | 0.03 | 0.03 | 90 | 1008.5 |
| 20260505183004 | 54 | 201 | 4.0 | 9.0 | 0.00 | 0.03 | 0.03 | 90 | 1008.5 |
| 20260505181501 | 54 | 200 | 4.0 | 10.0 | 0.00 | 0.03 | 0.03 | 90 | 1008.6 |
| 20260505180001 | 54 | 179 | 1.0 | 6.0 | 0.00 | 0.03 | 0.03 | 91 | 1008.7 |
| 20260505174601 | 53 | 131 | 3.0 | 6.0 | 0.00 | 0.03 | 0.03 | 92 | 1008.6 |
| 20260505173101 | 53 | 142 | 3.0 | 8.0 | 0.00 | 0.03 | 0.03 | 92 | 1008.7 |
| 20260505171559 | 53 | 142 | 3.0 | 9.0 | 0.02 | 0.03 | 0.03 | 92 | 1008.4 |
| 20260505170109 | 53 | 180 | 2.0 | 5.0 | 0.02 | 0.03 | 0.03 | 93 | 1008.3 |
| 20260505164559 | 52 | 265 | 2.0 | 7.0 | 0.02 | 0.05 | 0.03 | 92 | 1008.1 |
| 20260505163107 | 52 | 264 | 4.0 | 10.0 | 0.02 | 0.04 | 0.02 | 92 | 1008.0 |
| 20260505161557 | 53 | 259 | 7.0 | 13.0 | 0.01 | 0.03 | 0.02 | 89 | 1008.2 |
| 20260505153107 | 54 | 256 | 11.0 | 22.0 | 0.01 | 0.03 | 0.01 | 85 | 1007.9 |
| 20260505151555 | 55 | 241 | 14.0 | 21.0 | 0.01 | 0.03 | 0.01 | 83 | 1007.8 |
| 20260505150111 | 58 | 272 | 15.0 | 27.0 | 0.00 | 0.02 | 0.00 | 79 | 1007.7 |
| 20260505124540 | 59 | 230 | 6.0 | 11.0 | 0.00 | 0.02 | 0.00 | 84 | 1007.9 |
| 20260505123100 | 58 | 282 | 5.0 | 9.0 | 0.00 | 0.02 | 0.00 | 86 | 1007.8 |
| 20260505121535 | 58 | 347 | 1.0 | 5.0 | 0.00 | 0.02 | 0.00 | 88 | 1007.7 |
| 20260505120045 | 57 | 259 | 4.0 | 7.0 | 0.00 | 0.02 | 0.00 | 87 | 1007.9 |
| 20260505114541 | 56 | 274 | 3.0 | 4.0 | 0.00 | 0.02 | 0.00 | 87 | 1007.9 |
| 20260505113028 | 56 | 302 | 2.0 | 7.0 | 0.00 | 0.02 | 0.00 | 88 | 1007.9 |
| 20260505111527 | 56 | 317 | 4.0 | 7.0 | 0.00 | 0.02 | 0.00 | 88 | 1007.8 |
| 20260505101518 | 54 | 232 | 3.0 | 5.0 | 0.00 | 0.02 | 0.00 | 89 | 1008.2 |
| 20260505100016 | 54 | 134 | 0.0 | 0.0 | 0.00 | 0.02 | 0.00 | 90 | 1008.2 |
| 20260505094513 | 54 | 142 | 0.0 | 0.0 | 0.00 | 0.02 | 0.00 | 90 | 1008.2 |
| 20260505093012 | 53 | 142 | 0.0 | 1.0 | 0.00 | 0.02 | 0.00 | 91 | 1008.1 |
| 20260505091509 | 53 | 59 | 1.0 | 3.0 | 0.00 | 0.02 | 0.00 | 90 | 1008.0 |
| 20260505090009 | 53 | 162 | 1.0 | 3.0 | 0.00 | 0.02 | 0.00 | 90 | 1008.2 |
| 20260505084509 | 53 | 221 | 2.0 | 6.0 | 0.00 | 0.02 | 0.00 | 91 | 1008.2 |
| 20260505083006 | 52 | 219 | 2.0 | 6.0 | 0.00 | 0.02 | 0.00 | 92 | 1008.3 |
| 20260505081504 | 52 | 284 | 4.0 | 7.0 | 0.00 | 0.02 | 0.00 | 93 | 1008.3 |
| 20260505080059 | 52 | 312 | 1.0 | 4.0 | 0.00 | 0.02 | 0.00 | 93 | 1008.4 |
| 20260505074555 | 51 | 275 | 5.0 | 7.0 | 0.00 | 0.02 | 0.00 | 91 | 1008.7 |
| 20260505073057 | 52 | 219 | 0.0 | 4.0 | 0.00 | 0.02 | 0.00 | 91 | 1008.8 |
| 20260505071548 | 51 | 308 | 1.0 | 3.0 | 0.00 | 0.02 | 0.00 | 91 | 1008.9 |
| 20260505070053 | 51 | 322 | 0.0 | 3.0 | 0.00 | 0.02 | 0.00 | 91 | 1009.0 |
| 20260505064545 | 51 | 211 | 3.0 | 5.0 | 0.00 | 0.02 | 0.00 | 91 | 1009.0 |
| 20260505063045 | 51 | 278 | 5.0 | 10.0 | 0.00 | 0.02 | 0.00 | 91 | 1009.0 |
| 20260505061542 | 51 | 257 | 3.0 | 13.0 | 0.00 | 0.02 | 0.00 | 92 | 1009.1 |
| 20260505060038 | 51 | 235 | 4.0 | 9.0 | 0.00 | 0.02 | 0.00 | 94 | 1009.1 |
| 20260505054535 | 50 | 282 | 2.0 | 5.0 | 0.00 | 0.02 | 0.00 | 96 | 1009.0 |
| 20260505053032 | 49 | 67 | 0.0 | 3.0 | 0.00 | 0.02 | 0.00 | 95 | 1009.0 |